Location: Crescent
(42.8242°N, 73.7329°W)
Time: 15:30:03
(UTC+00:00)

Explorer 11/Cluster Stage 4 - Pass Details

Date: 23 February 2026
Orbit: 463 x 1176 km, 28.8° (Epoch: 8 March)

Event Time Altitude Azimuth Distance (km) Brightness Sun altitude
Rises 16:07:03 0° 230° (SW) 3,381 10.1 35.7°
Reaches altitude 10° 16:10:56 10° 207° (SSW) 2,270 9.7 35.9°
Maximum altitude 16:13:40 14° 176° (S) 1,875 10.0 36.1°
Drops below altitude 10° 16:16:10 10° 144° (SE) 2,032 9.9 36.2°
Sets 16:19:19 0° 119° (ESE) 2,799 9.9 36.3°
